Flag for Guinea Weather past 2 weeks in Conakry, Guinea

Now
75 °F

Partly sunny.


Feels Like: 74 °F
Forecast: 78 / 83 °F
Wind: 2 mph from North

Location: Conakry / Gbessia

Current Time: Aug 21, 2014 at 8:30:48 AM

Latest Report: Aug 21, 2014 at 8:00 AM


Visibility: N/A

Pressure: 29.95 "Hg

Humidity: 94%

Dew point: 73 °F

Location of ConakryLocation

Historic Weather in Conakry — Graph

°F

Conakry temperature yesterday

Maximum temperature yesterday: 86 °F (at 1:00 PM)
Minimum temperature yesterday: 73 °F (at 8:00 PM)
Average temperature yesterday: 80 °F

Past Weeks' High & Low Weather Summary

 TemperatureHumidityPressure
High86 °F (Aug 20, 1:00 PM)100% (Aug 6, 7:00 AM)30.01 "Hg (Aug 6, 7:00 AM)
Low73 °F (Aug 6, 7:00 AM)70% (Aug 16, 1:00 PM)29.83 "Hg (Aug 8, 5:00 PM)
Average78 °F92%29.93 "Hg
* Reported Aug 6 7:00 AM — Aug 21 7:00 AM, Conakry, Weather by CustomWeather, © 2014

Note: Actual official high and low records may vary slightly from our data, if they occured in-between our weather recording intervals... More about our weather records

Advertising

Conakry weather history for previous 24 hours

 ConditionsComfort  
Time TempWeatherWind HumidityBarometerVisibility
7:00 AM
Aug 21
75 °FPartly sunny.2 mph94%29.92 "HgN/A
6:00 AM73 °FPassing clouds.5 mph100%29.89 "HgN/A
5:00 AM73 °FPassing clouds.5 mph100%29.89 "HgN/A
4:00 AM73 °FPassing clouds.5 mph100%29.89 "HgN/A
3:00 AM73 °FPassing clouds.7 mph100%29.92 "HgN/A
2:00 AM73 °FPassing clouds.7 mph100%29.92 "HgN/A
1:00 AM73 °FPassing clouds.7 mph100%29.95 "HgN/A
12:00 AM75 °FPassing clouds.5 mph100%29.95 "HgN/A
11:00 PM
Aug 20
75 °FThunderstorms. Mostly cloudy.7 mph100%29.95 "HgN/A
10:00 PM75 °FThunderstorms. Passing clouds.5 mph100%29.95 "Hg5 mi
9:00 PM75 °FThunderstorms. Passing clouds.5 mph100%29.92 "Hg5 mi
8:00 PM73 °FThunderstorms. Mostly cloudy.2 mph100%29.92 "Hg3 mi
7:00 PM77 °FThunderstorms. Partly sunny.18 mph89%29.92 "Hg5 mi
6:00 PM81 °FPartly sunny.12 mph84%29.86 "HgN/A
5:00 PM84 °FPartly sunny.12 mph74%29.89 "HgN/A
4:00 PM84 °FBroken clouds.14 mph74%29.89 "HgN/A
3:00 PM84 °FBroken clouds.12 mph74%29.89 "HgN/A
2:00 PM84 °FBroken clouds.9 mph74%29.92 "HgN/A
1:00 PM86 °FBroken clouds.7 mph75%29.95 "HgN/A
12:00 PM84 °FBroken clouds.7 mph70%29.98 "HgN/A
11:00 AM82 °FPartly sunny.7 mph74%29.98 "HgN/A
10:00 AM81 °FPartly sunny.9 mph74%29.98 "HgN/A
9:00 AM79 °FPartly sunny.7 mph84%29.98 "HgN/A
Weather by CustomWeather, © 2014

See weather overviewHow to use our weather pages